Location: Newark
(41.2758°N, 92.6808°W)
Time: 13:13:41
(UTC+00:00)

ISS - Visible Passes

Search period start: 23 September 2019 00:00
Search period end: 03 October 2019 00:00
Orbit: 411 x 421 km, 51.6° (Epoch: 23 September)

Date Brightness Start Highest point End Pass type
(mag) Time Alt. Az. Time Alt. Az. Time Alt. Az.
23 Sep -2.2 01:33:21 10° W 01:36:24 33° NNW 01:38:33 16° NNE visible
24 Sep -3.0 00:44:37 10° WSW 00:47:52 50° NNW 00:51:08 10° NE visible
24 Sep -1.1 02:22:59 10° NW 02:25:03 16° NNW 02:25:03 16° NNW visible
25 Sep -1.4 01:33:59 10° WNW 01:36:30 20° NNW 01:38:32 12° NNE visible
26 Sep -1.8 00:45:01 10° W 00:47:51 25° NNW 00:50:41 10° NE visible
26 Sep -0.9 02:23:38 10° NW 02:24:51 13° NNW 02:24:51 13° NNW visible
27 Sep -1.2 01:34:43 10° NW 01:36:42 15° N 01:38:13 12° NNE visible
28 Sep -1.3 00:45:42 10° NW 00:47:57 17° NNW 00:50:12 10° NNE visible
28 Sep -0.8 02:23:41 10° NNW 02:24:26 13° NNW 02:24:26 13° NNW visible
29 Sep -1.3 01:35:05 10° NNW 01:36:54 14° N 01:37:43 13° NNE visible
30 Sep -1.2 00:46:16 10° NW 00:48:07 14° N 00:49:57 10° NNE visible
30 Sep -0.7 02:23:16 10° NNW 02:23:53 13° NNW 02:23:53 13° NNW visible
01 Oct -1.6 01:34:50 10° NNW 01:37:03 16° NNE 01:37:10 16° NNE visible
02 Oct -1.4 00:46:18 10° NNW 00:48:15 15° N 00:50:13 10° NE visible
02 Oct -0.8 02:22:39 10° NW 02:23:20 14° NW 02:23:20 14° NW visible
